Weather in Bentsy

Russia / Tver Oblast     56°09′56″N   31°43′52″E
temp.,
°C
wind,
m/s
gust,
m/s
humid.,
%
clouds,
%
prec.,
mm/h
press.,
hPa
HPBL,
m
13 may, thu
thu1300:00+13ene3996100 4.9 1014462
03:00+12ese6129173 5.9 1013967
06:00+8se5109173 0.1 1015785
09:00+11ese5107751 0.1 1015928
12:00+15ese6105629 0.1 10141619
15:00+15se6860100 0.9 10121619
18:00+11se388585 2.3 1012767
21:00+9se389580 2.9 1012245
14 may, fri
fri1400:00+7se399682 0.1 1012279
03:00+6ese399867 0.1 1012225
06:00+8se41293100 0.0 1011484
09:00+10se51388100 0.0 1011595
12:00+13se4128096 0.1 1011606
15:00+14se41079100 0.3 1010551
18:00+16se147227 0.1 1009213
21:00+12e37944 0.3 1008122
15 may, sat
sat1500:00+12ese31098100 1.4 1006296
03:00+12e259899 2.6 1005146
06:00+11ese279992 1.6 1004244
09:00+15s478758 2.0 1004598
12:00+17s5675100 1.9 10041060
15:00+14ssw499266 3.9 1005558
18:00+15sw4987100 1.5 1006779
21:00+12ssw2697100 3.6 1008155
16 may, sun
sun1600:00+10ssw11986 0.4 100918
03:00+10w119612 0.4 101010
06:00+10wnw00955 0.0 101114
09:00+15s11795 0.0 1012460
12:00+18sw236162 0.6 10121353
15:00+21sw234451 0.6 10122055
18:00+17sse256991 0.0 1012109
21:00+14sse248930 0.1 101378
17 may, mon
mon1700:00+12se2495100 0.0 101389
03:00+11ese2696100 0.0 1013117
06:00+13ese3987100 0.0 1013263
09:00+17se4870100 0.0 1013518
12:00+21ese4753100 0.0 10111195
15:00+24ese6951100 0.0 10091851
18:00+22ese61364100 0.0 10061388
21:00+20ese61577100 0.4 1005881